Location: Haliburton Scout Reserve
(45.0900°N, 78.3200°W)
Time: 19:30:24
(UTC-04:00)

STRAND 1 - Pass Details

Date: 30 March 2023
Orbit: 767 x 779 km, 98.4° (Epoch: 06 June)

Event Time Altitude Azimuth Distance (km) Brightness Sun altitude
Rises 20:44:34 0° 7° (N) 3,251 ? -12.2°
Reaches altitude 10° 20:46:58 10° 2° (N) 2,319 ? -12.6°
Maximum altitude 20:51:48 45° 291° (WNW) 1,048 ? -13.4°
Drops below altitude 10° 20:56:36 10° 220° (SW) 2,302 ? -14.2°
Sets 20:58:58 0° 214° (SW) 3,225 ? -14.6°
